PISAT

Last updated on Sun Dec 07 2025 00:03:36 GMT+0000 (Coordinated Universal Time)

1 41784U 16059B 25340.62086320 .00002361 00000+0 41274-3 0 9998 2 41784 97.8155 344.4533 0030701 100.2091 260.2579 14.68472066491471
UTC large
Height (km)
Speed (km/s)
/
Latitude / Longitude
Inclination (degrees)
Orbital Period (minutes)
Azimuth
Elevation
Range (km)
Doppler Factor

Next 0 passes for location: London (51.5072 / 0.1276)

Sorry there are no passes over London.